Вернуться в каталог

STARLINK-35570

АктивенСвязьVLEO
NORAD 66090·PAYLOAD·🇺🇸 United States

Запущен Oct 19, 2025 с Vandenberg Space Force Base

Loading…

Ближайшие Пролёты (ближайшие 24 часа)

TLE

СвежийSource: CelesTrak SupGP

Эпоха: Sep 15, 2026, 02:53 UTC

1 66090C 25236E   26258.12062500  .00025250  00000+0  74639-3 0  2581
2 66090  53.1587 302.6925 0001323  93.5278 335.4576 15.34362278    17

Отслеживайте STARLINK-35570 в реальном времени с AllMySat

Download on the App Store